Temperature
19 16 16 17 17 18 17 17 17 17 18 17 16 15 15 16 15 15 15 16 16 16 16 16 16 16 16 15 15 15 15 15 15 15 15 14 14 14 14 14 14 14 14 14
16 17 17 18 17 17 17 17 17 17 17 17 15 15 15 15 15 15 15 15 16 16 16 16 16 16 15 15 15 15 15 15 15 15 14 14 14 14 14 14 14 13 13 13
17 18 18 18 18 17 17 17 17 17 17 16 16 15 15 15 15 15 15 16 16 16 16 16 15 15 15 15 15 15 14 14 14 14 14 14 14 14 13 13 13 13 13 13
17 18 18 18 18 18 17 18 17 17 16 15 16 14 14 14 14 14 15 15 15 15 15 15 15 15 15 15 15 14 14 14 14 14 14 14 14 13 13 13 13 13 13 12
17 18 18 18 18 18 18 17 17 16 15 15 15 14 14 14 14 14 14 15 15 15 15 15 15 15 15 15 14 14 14 14 14 14 13 13 13 13 13 13 13 12 12 12
17 18 18 18 18 18 17 16 15 14 14 14 15 14 14 13 14 14 14 14 15 15 15 15 15 15 15 14 14 14 14 14 14 14 13 13 13 13 13 13 12 12 12 12
17 17 17 18 18 17 16 15 14 15 13 14 14 14 14 14 13 13 13 14 14 14 15 15 15 14 14 14 14 14 14 14 13 13 13 13 13 12 12 12 12 12 12 12
16 16 17 17 17 16 16 15 14 15 14 13 14 14 14 13 13 14 14 14 14 14 14 14 14 14 14 14 14 14 13 13 13 13 13 12 12 12 12 12 12 12 11 11
15 16 17 17 17 17 16 14 14 13 14 14 13 13 14 13 13 13 13 13 14 14 14 14 14 14 14 14 13 13 13 13 13 13 13 12 12 12 12 12 12 11 11 11
15 16 16 16 17 16 15 13 12 13 14 14 14 14 13 13 13 12 12 12 13 13 13 14 14 14 14 13 13 13 13 13 13 12 12 12 12 12 11 11 11 11 11 11
15 15 15 16 16 16 15 14 12 11 12 13 13 13 13 13 13 12 12 13 13 13 13 13 13 13 13 13 13 13 12 12 12 12 12 12 12 11 11 11 11 11 11 11
14 13 14 15 15 15 15 14 12 13 13 11 12 13 13 12 12 12 12 13 13 13 13 13 13 13 13 13 12 12 12 12 12 12 12 11 11 11 11 11 11 11 11 11
14 13 13 14 14 15 15 14 13 12 11 10 11 13 13 12 12 12 12 13 13 13 13 12 13 13 13 12 12 12 12 11 11 11 11 11 11 11 11 11 11 11 10 10
14 12 13 14 14 14 14 14 13 12 11 11 11 12 13 12 11 12 12 12 13 13 12 12 12 12 12 12 12 12 11 11 11 11 11 11 11 11 11 10 10 10 10 10
13 13 13 13 13 14 14 14 13 12 12 12 12 12 13 12 11 12 12 12 12 12 12 12 12 12 12 12 11 11 11 11 11 10 10 10 10 10 10 10 10 10 10 10
11 13 13 13 13 13 13 13 13 13 12 12 12 12 11 12 12 12 12 11 11 12 12 12 12 12 11 11 11 11 11 11 10 10 10 10 10 10 10 10 10 10 10 9
11 12 12 12 12 13 12 13 13 12 12 12 12 12 11 11 11 12 12 11 11 11 11 12 11 11 11 11 11 10 10 10 10 10 10 9 9 9 9 9 9 9 9 9
10 11 10 10 12 13 13 13 13 13 12 11 12 11 11 11 12 12 12 12 12 11 11 11 11 11 11 11 10 10 10 10 10 9 9 9 9 9 9 9 9 9 9 9
10 10 10 10 11 11 12 13 12 12 12 12 11 11 11 11 11 11 12 12 12 12 11 11 11 11 10 10 10 10 10 9 9 9 9 9 9 8 8 8 9 9 9 9
9 9 9 9 11 12 13 13 13 12 12 11 11 11 10 10 9 10 12 12 12 11 11 11 11 10 10 10 9 9 9 9 9 9 8 8 8 8 8 8 8 8 8 8
10 9 9 9 10 11 11 12 12 12 12 12 12 11 11 10 10 11 11 11 11 11 11 10 10 10 9 9 9 9 9 8 8 8 8 8 8 8 8 8 8 8 8 8
10 9 9 8 10 11 11 11 11 11 12 12 12 12 11 11 11 11 11 11 11 10 10 10 9 9 9 9 8 8 8 8 8 8 8 8 7 7 7 7 7 7 7 7
9 9 9 9 10 11 11 11 12 12 12 12 12 12 11 11 11 10 10 10 10 10 9 9 9 8 8 8 8 8 7 7 7 7 7 7 7 7 7 7 7 7 7 7
8 8 8 8 9 10 11 12 12 12 12 12 12 11 11 11 10 10 10 10 9 9 9 9 8 8 8 8 7 7 7 7 7 7 7 7 7 7 7 6 6 6 6 6
9 8 8 8 9 10 11 11 11 11 11 11 11 11 10 10 10 10 9 9 9 9 8 8 8 8 7 7 7 7 6 6 6 6 6 6 6 6 6 6 6 6 6 6
8 8 8 9 10 9 10 11 11 11 11 11 10 10 10 10 9 9 9 9 8 8 8 8 7 7 7 7 7 7 6 6 6 6 6 6 6 6 6 6 6 6 5 5
Wind_Speed
4 5 1 4 5 4 4 3 2 3 2 4 3 2 3 3 3 4 4 4 4 4 2 1 2 2 3 2 3 3 3 3 3 3 2 2 2 2 2 3 5 5 5 5
6 2 4 2 3 3 3 2 2 2 1 3 1 2 2 2 3 4 5 6 6 4 1 2 2 2 3 2 2 2 2 2 3 2 2 2 2 1 1 3 4 5 4 4
3 3 1 3 2 2 1 3 3 2 2 3 2 4 3 2 1 2 3 4 5 6 5 3 3 2 2 2 2 2 2 2 2 3 3 3 3 3 2 2 2 4 4 4
0 3 1 2 1 3 2 3 4 3 3 1 1 2 5 3 3 2 3 4 5 5 4 4 4 3 3 2 2 2 2 2 2 3 4 4 3 2 1 0 1 2 3 4
1 1 1 1 3 3 3 1 3 3 4 2 2 1 6 3 4 4 3 4 5 4 5 5 4 4 3 2 2 2 2 3 2 3 3 3 2 1 1 1 2 2 3 3
2 1 1 2 1 2 3 5 6 5 4 1 2 2 4 3 4 4 3 2 2 3 3 3 3 3 2 2 2 2 3 2 2 3 3 3 3 2 2 1 1 1 1 2
5 4 3 0 2 4 5 5 4 4 3 3 1 2 5 4 3 2 2 2 0 2 3 2 3 3 3 2 2 2 3 2 2 3 2 2 3 3 3 2 2 1 0 0
1 4 4 1 2 2 1 5 5 3 3 3 1 3 4 3 3 2 1 1 1 2 2 2 3 3 3 3 3 2 2 2 2 2 2 2 2 2 2 2 2 2 2 2
3 4 4 1 0 5 3 2 3 5 2 1 3 4 4 4 5 5 4 2 1 1 1 1 2 3 3 3 3 3 3 2 1 2 2 2 2 2 2 2 2 1 1 1
4 2 4 3 4 5 4 6 4 4 3 2 4 3 3 4 3 3 2 2 1 0 1 1 1 1 3 3 2 2 2 2 2 1 1 1 1 2 2 2 2 2 2 2
3 3 4 3 2 1 3 4 4 4 4 4 2 4 3 3 3 3 3 2 1 1 1 1 1 1 2 2 2 2 1 1 1 1 1 1 1 1 1 1 2 2 2 3
2 4 1 4 3 1 3 4 5 3 2 3 3 5 2 2 3 2 2 2 1 1 1 1 1 1 1 2 2 2 2 2 1 1 1 1 1 1 1 1 1 1 2 2
4 4 2 5 4 3 1 2 3 4 4 4 3 5 1 2 1 1 1 2 1 1 0 1 1 1 0 1 2 2 2 2 1 1 1 1 1 1 1 2 1 1 2 2
5 4 5 6 5 2 2 1 3 5 3 4 6 6 6 4 3 2 1 1 1 1 0 1 1 1 1 0 1 1 1 1 1 1 1 1 1 2 2 2 1 2 2 3
4 2 2 3 3 2 3 3 3 5 6 7 6 6 7 5 4 3 2 1 0 0 1 0 1 1 1 1 1 1 1 1 1 2 2 2 2 1 1 1 2 1 2 3
3 3 1 2 1 1 3 4 5 5 4 5 4 6 6 3 1 1 2 2 2 2 2 1 1 1 1 1 2 2 2 2 2 3 3 2 1 1 1 2 2 2 2 2
2 4 2 3 4 2 4 5 5 4 4 5 6 7 2 2 3 3 3 3 3 3 3 2 2 2 2 3 2 2 3 2 2 3 2 2 2 2 2 2 1 2 3 3
5 4 3 1 2 4 6 3 4 4 4 5 4 4 3 4 3 2 1 3 4 3 3 3 3 2 3 2 2 2 1 2 2 3 3 2 2 3 2 1 2 3 3 3
5 6 4 3 2 6 5 3 3 4 4 3 4 3 1 1 2 3 2 2 4 4 4 3 3 3 2 2 2 1 1 2 2 3 4 4 3 3 3 3 3 3 3 3
4 4 5 4 3 6 5 3 1 3 3 3 3 3 2 3 1 4 3 2 2 2 2 2 1 1 1 2 1 1 2 2 4 5 5 4 3 4 4 5 4 3 3 4
2 2 3 4 4 6 5 3 3 3 5 3 3 4 4 4 5 4 2 2 2 2 2 1 1 1 2 2 1 2 2 4 5 4 3 2 3 4 4 4 3 3 3 3
5 4 4 4 4 6 2 3 4 5 2 1 2 3 3 3 3 2 2 2 2 1 1 1 1 2 2 1 1 2 4 4 3 2 2 2 2 3 2 2 2 3 3 3
5 6 5 7 6 3 2 3 2 2 2 2 2 2 2 2 2 2 2 2 2 1 1 1 1 2 2 2 2 3 5 3 2 1 2 2 2 2 2 2 2 2 2 3
3 2 3 3 5 3 2 1 1 1 2 2 1 2 2 2 2 2 2 2 2 2 1 1 1 1 3 3 3 3 4 2 1 2 2 2 2 2 2 2 2 2 3 3
5 4 3 4 4 2 2 2 2 1 0 1 1 1 2 2 2 2 2 3 2 2 1 1 1 3 4 3 4 3 2 1 1 2 2 2 2 2 3 3 3 4 4 5
4 6 6 6 5 4 4 3 2 2 2 2 1 1 1 2 2 2 2 2 2 2 1 1 2 3 3 3 4 3 2 1 2 2 3 2 2 2 2 2 3 4 4 6
Wind_Direction
34 68 109 225 199 178 157 158 210 247 192 141 172 240 261 188 177 201 205 200 204 217 226 164 147 129 116 107 110 113 117 119 121 114 108 93 67 38 39 43 48 60 65 70
42 356 262 210 141 121 128 144 235 287 138 150 157 300 283 207 203 207 209 209 205 209 197 157 143 125 131 134 136 129 137 142 140 124 121 121 116 87 62 38 42 48 63 72
137 263 248 126 105 113 185 184 210 210 58 61 76 337 322 296 256 237 216 205 200 199 195 181 163 159 146 155 168 159 156 141 124 105 98 85 65 48 36 28 21 22 52 72
126 297 103 105 192 157 250 241 189 159 119 319 97 293 306 301 310 288 249 222 211 204 190 179 172 166 173 194 159 136 135 126 120 121 121 128 132 144 197 202 22 17 46 70
287 311 112 178 246 186 212 97 123 120 127 57 28 122 300 340 317 296 272 235 214 198 187 185 182 182 177 163 150 148 133 125 125 125 131 126 123 140 115 76 68 40 36 53
290 293 179 229 257 139 121 72 62 55 73 27 277 167 288 278 265 285 293 279 215 190 181 180 165 147 144 141 144 145 140 142 142 134 134 138 138 134 123 117 115 59 31 38
344 337 333 34 49 23 72 82 36 12 19 263 251 172 251 282 289 260 246 276 202 160 153 148 143 147 152 152 156 154 148 156 158 148 155 159 155 152 161 176 174 163 115 70
41 313 308 339 159 190 138 134 151 187 223 277 334 227 255 321 339 0 72 99 97 112 135 154 164 167 168 165 161 159 161 170 166 167 181 175 163 155 174 181 177 185 196 205
172 267 302 307 239 130 118 135 160 136 137 288 286 293 313 12 22 28 31 42 48 118 145 150 146 156 156 163 177 179 173 166 167 176 179 181 178 174 183 182 167 180 191 164
160 247 305 321 62 39 110 135 92 110 140 269 297 288 275 309 322 346 347 330 303 9 40 94 103 156 174 177 172 165 171 180 190 177 184 192 196 200 193 172 178 188 183 149
132 157 319 27 96 171 74 82 93 106 138 155 259 275 226 228 238 250 266 273 282 237 225 202 190 196 169 148 155 161 162 166 187 191 182 156 192 188 158 172 205 200 174 159
121 125 262 271 265 193 146 153 140 145 211 167 180 262 278 248 246 234 268 292 292 263 223 198 145 88 111 149 161 168 178 183 198 179 147 159 173 170 166 196 217 178 166 160
127 109 48 347 348 14 81 129 134 123 121 157 178 255 294 4 345 273 256 290 291 294 17 38 71 80 118 190 195 193 187 193 178 147 140 133 155 180 201 215 209 179 155 144
118 114 165 201 227 224 249 207 148 134 159 205 220 247 290 312 310 300 270 258 252 228 142 68 33 6 341 280 229 215 211 196 175 157 167 199 233 228 219 202 191 184 167 161
107 148 207 233 240 193 214 236 192 185 193 201 230 234 267 271 264 260 247 247 198 355 12 265 253 296 332 330 309 269 231 211 191 180 204 239 260 271 231 194 192 188 178 180
101 154 172 278 278 222 261 263 222 212 208 212 234 261 261 262 247 272 267 232 229 246 244 246 250 252 266 269 279 278 265 232 196 198 224 241 239 255 261 229 205 196 200 188
147 145 150 260 296 347 283 252 220 209 206 193 219 243 257 272 248 239 242 233 235 243 242 243 249 250 250 252 243 251 252 239 210 216 232 236 223 225 243 246 217 215 213 198
156 145 148 207 37 250 243 230 192 192 227 210 217 246 239 238 242 239 224 225 241 246 247 246 247 252 255 254 257 253 263 224 227 236 244 247 235 233 241 235 235 233 222 209
160 149 139 145 226 272 287 259 193 193 252 223 213 245 268 61 33 330 279 226 230 230 234 234 234 240 253 266 260 236 259 247 237 243 248 248 236 228 226 232 241 243 228 218
87 115 131 142 187 239 250 264 229 139 265 255 198 208 206 100 34 273 282 273 260 254 243 237 254 301 292 287 251 222 251 252 252 252 253 249 237 232 232 232 236 239 231 224
98 100 156 175 216 257 259 272 112 152 254 258 198 203 187 194 222 251 276 285 262 247 245 223 207 255 271 276 236 249 261 262 264 268 263 250 245 244 242 238 228 222 223 222
181 171 186 165 199 250 243 125 166 218 245 217 208 208 201 224 251 266 278 278 287 283 262 219 223 277 290 266 216 257 268 271 271 260 260 262 258 258 260 237 242 224 206 212
199 192 187 191 212 239 192 192 227 190 204 224 203 227 197 225 254 272 279 279 278 265 257 263 231 279 300 286 232 251 274 283 267 247 261 272 273 267 256 237 239 244 219 212
254 172 168 233 255 255 258 267 288 234 208 233 218 205 191 226 250 273 281 284 284 268 274 265 240 276 287 286 276 261 278 286 260 256 271 274 266 273 272 258 238 229 228 233
224 175 195 247 259 271 270 250 243 250 90 48 354 261 205 191 240 259 270 274 269 279 278 229 228 252 269 282 289 289 285 283 265 266 270 273 265 259 262 260 247 242 234 228
203 189 193 230 226 202 237 235 205 196 226 221 228 302 270 194 221 250 266 269 267 273 281 275 267 271 281 293 294 293 279 249 238 261 267 259 256 259 261 268 290 283 263 264
Height
1502 1508 1514 1512 1510 1511 1514 1519 1521 1518 1513 1517 1520 1521 1519 1518 1519 1519 1520 1521 1522 1523 1525 1526 1527 1528 1529 1529 1530 1530 1530 1530 1531 1531 1531 1531 1531 1531 1531 1531 1530 1530 1530 1529
1510 1513 1509 1507 1508 1511 1514 1519 1520 1516 1513 1516 1521 1522 1518 1518 1518 1518 1519 1519 1520 1522 1524 1525 1526 1527 1528 1529 1529 1530 1530 1530 1530 1531 1531 1531 1531 1531 1531 1530 1530 1530 1529 1529
1512 1511 1506 1507 1510 1513 1515 1518 1518 1518 1516 1517 1521 1524 1520 1518 1517 1517 1517 1518 1519 1520 1522 1523 1525 1526 1527 1528 1529 1529 1530 1530 1530 1530 1531 1531 1531 1530 1530 1530 1530 1529 1529 1528
1510 1508 1507 1509 1511 1512 1518 1511 1513 1515 1522 1529 1525 1537 1525 1520 1518 1516 1516 1516 1517 1519 1520 1521 1523 1524 1525 1527 1528 1529 1529 1530 1530 1530 1530 1530 1530 1530 1530 1529 1529 1529 1528 1528
1511 1508 1509 1511 1510 1509 1512 1509 1512 1516 1522 1530 1529 1535 1531 1522 1520 1517 1515 1514 1515 1517 1518 1520 1521 1523 1524 1526 1527 1528 1528 1529 1529 1529 1529 1529 1529 1529 1529 1529 1528 1528 1528 1527
1509 1507 1507 1508 1506 1507 1508 1513 1517 1523 1529 1538 1533 1537 1535 1526 1520 1516 1514 1514 1514 1515 1517 1519 1520 1522 1523 1525 1526 1526 1527 1528 1528 1528 1528 1528 1528 1528 1528 1527 1527 1527 1527 1527
1514 1510 1507 1506 1509 1509 1512 1523 1536 1538 1544 1542 1531 1534 1532 1520 1517 1515 1514 1514 1514 1515 1516 1517 1519 1520 1521 1523 1524 1524 1525 1526 1527 1527 1527 1527 1527 1526 1526 1526 1526 1526 1526 1526
1523 1523 1511 1508 1510 1513 1515 1521 1537 1544 1546 1542 1533 1534 1527 1518 1516 1514 1514 1514 1513 1514 1515 1516 1517 1518 1520 1521 1522 1523 1523 1524 1525 1525 1526 1526 1526 1525 1525 1525 1525 1525 1524 1525
1523 1522 1509 1507 1507 1510 1516 1523 1523 1534 1537 1542 1538 1531 1522 1517 1515 1514 1513 1513 1513 1513 1514 1515 1516 1517 1518 1519 1520 1521 1522 1522 1523 1524 1524 1524 1524 1524 1524 1524 1524 1523 1523 1523
1515 1520 1512 1509 1508 1511 1514 1520 1529 1535 1542 1545 1539 1534 1530 1521 1518 1516 1515 1514 1513 1513 1514 1514 1515 1515 1517 1518 1519 1520 1520 1521 1521 1522 1522 1522 1522 1522 1522 1522 1522 1522 1522 1522
1513 1520 1518 1514 1515 1517 1519 1523 1528 1536 1538 1544 1545 1538 1520 1518 1516 1515 1514 1514 1513 1513 1513 1514 1514 1515 1515 1516 1517 1518 1518 1519 1519 1519 1520 1520 1520 1520 1520 1520 1520 1520 1520 1520
1514 1522 1525 1519 1513 1512 1514 1519 1527 1534 1537 1541 1543 1538 1516 1515 1514 1514 1513 1513 1513 1512 1513 1513 1513 1514 1514 1514 1515 1516 1516 1516 1517 1517 1517 1517 1518 1518 1517 1518 1518 1518 1518 1518
1514 1522 1530 1527 1524 1518 1517 1519 1522 1528 1536 1542 1543 1533 1515 1514 1513 1512 1513 1513 1512 1512 1512 1512 1512 1512 1512 1513 1514 1514 1514 1514 1515 1515 1515 1515 1515 1515 1515 1515 1516 1516 1516 1517
1510 1520 1526 1529 1525 1520 1519 1519 1521 1526 1534 1538 1534 1525 1516 1514 1513 1512 1511 1511 1511 1511 1511 1511 1511 1511 1511 1512 1512 1512 1512 1513 1513 1513 1513 1513 1512 1512 1513 1513 1513 1514 1514 1515
1511 1520 1520 1519 1516 1517 1517 1518 1519 1522 1524 1528 1524 1521 1515 1512 1511 1510 1510 1510 1510 1510 1510 1510 1510 1510 1511 1510 1510 1510 1510 1511 1511 1511 1510 1510 1510 1510 1510 1511 1511 1511 1512 1512
1513 1518 1519 1519 1516 1516 1518 1515 1515 1517 1518 1519 1518 1517 1511 1509 1510 1509 1509 1509 1509 1509 1509 1509 1509 1509 1509 1509 1509 1509 1509 1508 1508 1508 1508 1508 1508 1508 1508 1508 1508 1508 1509 1509
1515 1518 1522 1525 1520 1517 1521 1514 1513 1513 1512 1514 1516 1512 1509 1509 1508 1508 1508 1507 1507 1507 1507 1508 1508 1508 1508 1508 1507 1507 1506 1506 1506 1505 1505 1505 1505 1505 1505 1505 1505 1505 1506 1506
1514 1518 1524 1527 1524 1526 1515 1507 1507 1509 1509 1509 1508 1507 1507 1507 1506 1507 1506 1506 1506 1506 1506 1506 1506 1506 1506 1506 1505 1505 1504 1503 1503 1503 1502 1502 1502 1502 1501 1502 1502 1502 1502 1503
1509 1515 1524 1529 1528 1522 1512 1506 1506 1508 1508 1505 1505 1505 1505 1505 1505 1505 1505 1505 1505 1505 1505 1505 1504 1504 1504 1503 1502 1502 1501 1501 1500 1500 1499 1499 1499 1498 1498 1498 1498 1498 1498 1499
1510 1513 1522 1527 1526 1523 1510 1503 1502 1505 1509 1503 1503 1503 1504 1505 1509 1506 1503 1503 1503 1503 1503 1502 1502 1502 1501 1501 1500 1499 1499 1498 1497 1497 1496 1496 1495 1495 1494 1494 1494 1494 1495 1495
1515 1519 1522 1524 1524 1516 1505 1501 1502 1512 1509 1502 1501 1501 1502 1503 1504 1502 1501 1501 1501 1501 1501 1500 1500 1499 1499 1498 1497 1496 1495 1495 1494 1494 1493 1492 1491 1491 1491 1490 1490 1490 1491 1491
1514 1517 1520 1522 1523 1516 1501 1501 1504 1504 1500 1499 1499 1499 1500 1500 1500 1500 1499 1499 1498 1498 1498 1498 1497 1497 1496 1496 1495 1493 1492 1492 1491 1490 1489 1489 1488 1487 1487 1487 1486 1487 1487 1487
1508 1507 1509 1510 1508 1501 1499 1499 1499 1499 1498 1498 1498 1498 1498 1498 1498 1497 1497 1496 1496 1496 1495 1495 1495 1494 1494 1493 1492 1490 1489 1489 1488 1487 1486 1485 1484 1484 1484 1483 1482 1482 1482 1482
1503 1502 1504 1504 1500 1498 1497 1497 1497 1497 1497 1496 1496 1496 1496 1496 1495 1495 1495 1494 1494 1493 1493 1492 1492 1491 1490 1490 1489 1488 1487 1486 1484 1483 1482 1481 1481 1480 1480 1479 1479 1478 1478 1478
1499 1500 1501 1501 1497 1496 1495 1495 1495 1495 1495 1495 1495 1494 1494 1494 1493 1493 1492 1492 1491 1490 1490 1489 1489 1488 1488 1487 1486 1485 1484 1483 1481 1480 1479 1478 1477 1477 1476 1475 1475 1474 1474 1474
1495 1496 1498 1496 1493 1494 1493 1493 1493 1493 1493 1493 1492 1492 1492 1492 1491 1491 1490 1490 1489 1488 1487 1487 1486 1486 1485 1484 1483 1482 1481 1480 1479 1477 1476 1475 1474 1473 1472 1472 1471 1470 1470 1470